#timestamp,LO_Frequency,Hit,StdDev 
1506927615.2,286046999.9,N
1506927635.0,286047002.4,N
1506927635.9,286047002.4,N
1506927655.8,286047002.5,N
1506927675.6,286047008.1,Y
1506927695.5,286047014.8,P
1506927715.3,286047015.3,N
1506927735.1,286047010.0,N
1506927755.9,286047010.5,N
1506927775.7,286047007.7,N
1506927795.6,286047008.4,N
1506927815.4,286047006.9,N
1506927835.2,286047004.7,N
1506927855.1,286047003.1,N
1506927856.0,286047003.1,N
1506927875.8,286047004.1,N
1506927895.7,286047002.2,N
1506927915.5,286047002.7,N
1506927935.3,286047002.8,N
1506927955.2,286047000.6,N
1506927975.0,286047000.5,N
1506927975.9,286047000.5,N
1506927995.8,286047000.3,N
1506928015.6,286046998.8,N
1506928035.4,286046999.2,N
1506928055.3,286047001.2,N
1506928075.1,286046999.1,N
1506928095.9,286046999.6,N
1506928115.7,286046999.4,N
1506928135.5,286046996.6,N
1506928155.4,286046996.5,N
1506928175.2,286046999.6,N
1506928195.1,286046999.1,N
1506928196.0,286046999.1,N
1506928215.8,286046996.6,N
1506928235.6,286046999.3,N
1506928255.5,286046998.2,N
1506928275.3,286047001.2,N
1506928295.1,286047001.1,N
1506928315.9,286047000.9,N
1506928335.7,286047002.3,N
1506928355.6,286047000.3,N
1506928375.4,286046998.2,N
1506928395.2,286047000.7,N
1506928415.1,286047000.4,N
1506928416.0,286047000.4,N
1506928435.8,286047001.2,N
1506928455.7,286046998.8,N
1506928475.5,286046998.5,N
1506928495.3,286046998.2,N
1506928515.2,286047001.1,N
1506928535.0,286047001.2,N
1506928535.9,286047001.2,N
1506928555.8,286047000.7,N
1506928575.6,286046998.5,N
1506928595.4,286046999.3,N
1506928615.3,286047001.2,N
1506928635.1,286046998.7,N
1506928655.8,286046998.2,N
1506928675.7,286047001.0,N
1506928695.5,286047001.0,N
1506928715.4,286046999.9,N
1506928735.2,286047000.8,N
1506928755.0,286047000.8,N
1506928755.9,286047000.8,N
1506928775.8,286047000.9,N
1506928795.6,286047000.3,N
1506928815.5,286047000.5,N
1506928835.3,286047002.2,N
1506928855.1,286047000.0,N
1506928875.9,286047000.9,N
1506928895.7,286047000.7,N
1506928915.6,286047000.2,N
1506928935.4,286046998.1,N
1506928955.2,286047000.7,N
1506928975.1,286047000.8,N
1506928976.0,286047000.8,N
1506928995.8,286046998.3,N
1506929015.7,286046998.3,N
1506929065.5,286046998.5,E
1506929075.4,286047000.8,N
1506929095.3,286046999.8,P
1506929115.1,286046999.7,N
1506929135.9,286047004.4,Y
1506929155.7,286047001.5,P
1506929175.5,286047001.8,N
1506929195.4,286047001.5,N
1506929215.2,286047002.0,N
1506929235.1,286046999.8,N
1506929236.0,286046999.8,N
1506929255.8,286047002.1,N
1506929275.6,286047004.3,Y
1506929295.5,286047000.2,P
1506929315.3,286046999.7,N
1506929335.1,286047002.8,P
1506929355.9,286046999.9,N
1506929375.7,286047000.8,N
1506929395.6,286047000.4,N
1506929415.4,286047000.9,N
1506929435.2,286046998.5,N
1506929455.1,286046998.2,N
1506929456.0,286046998.2,N
1506929475.8,286047000.5,N
1506929495.7,286047000.8,N
1506929515.5,286046998.5,N
1506929535.3,286047000.4,N
1506929555.2,286047000.9,N
1506929575.9,286047002.5,N
1506929595.7,286047002.3,N
1506929615.6,286047002.1,N
1506929635.4,286047002.0,N
1506929655.3,286047002.2,N
1506929675.1,286047004.2,Y
1506929676.0,286047004.2,P
1506929695.8,286047001.5,N
1506929715.7,286047001.7,N
1506929735.5,286047002.2,N
1506929755.3,286047002.1,N
1506929775.2,286047002.8,N
1506929795.0,286047000.0,N
1506929795.9,286047000.0,N
1506929815.8,286047002.4,N
1506929835.6,286047002.2,N
1506929855.4,286047000.6,N
1506929875.3,286046999.9,N
1506929895.1,286047002.7,N
1506929915.9,286047002.2,N
1506929935.7,286047002.6,N
1506929955.5,286047002.6,N
1506929975.4,286047002.5,N
1506929995.2,286047002.5,N
1506930015.0,286047004.3,Y
1506930016.0,286047004.3,P
1506930035.8,286047000.3,N
1506930055.6,286047000.2,N
1506930075.5,286047000.6,N
1506930095.3,286047000.3,N
1506930115.1,286047000.1,N
1506930135.9,286047000.2,N
1506930155.7,286047002.6,N
1506930175.6,286047000.0,N
1506930195.4,286047000.3,N
1506930215.2,286047000.3,N
1506930235.1,286047000.5,N
1506930236.0,286047000.5,N
1506930255.8,286047000.2,N
1506930275.7,286047000.8,N
1506930295.5,286047001.1,N
1506930315.3,286047001.2,N
1506930335.2,286047000.3,N
1506930355.0,286047000.4,N
1506930355.9,286047000.4,N
1506930375.7,286046998.7,N
1506930395.6,286047000.8,N
1506930415.4,286046999.3,N
1506930435.3,286046999.0,N
1506930455.1,286046999.4,N
1506930456.0,286046999.4,N
1506930475.8,286046997.6,N
1506930495.7,286046996.8,N
1506930515.5,286046996.8,N
1506930535.3,286046999.1,N
1506930555.2,286046998.8,N
1506930575.0,286046998.3,N
1506930575.9,286046998.3,N
1506930595.8,286046999.6,N
1506930615.6,286047001.2,N
1506930635.4,286046998.2,N
1506930655.3,286047001.2,N
1506930675.1,286046998.1,N
1506930695.9,286047000.2,N
1506930715.7,286046998.6,N
1506930735.5,286046998.3,N
1506930755.4,286047000.5,N
1506930775.2,286046998.3,N
1506930795.0,286046999.2,N
1506930796.0,286046999.2,N
1506930815.8,286046996.8,N
1506930835.6,286046999.6,N
1506930855.5,286046998.3,N
1506930875.3,286046997.1,N
1506930895.1,286046997.5,N
1506930915.9,286046997.2,N
1506930935.7,286046997.1,N
1506930955.6,286046997.5,N
1506930975.4,286046996.9,N
1506930995.2,286046997.3,N
1506931015.1,286046997.7,N
1506931016.0,286046997.7,N
1506931035.8,286046997.9,N
1506931055.6,286046999.6,N
1506931075.5,286046999.5,N
1506931095.3,286046996.8,N
1506931115.2,286046999.2,N
1506931135.0,286046998.8,N
1506931135.9,286046998.8,N
1506931155.7,286046997.0,N
1506931175.6,286046997.3,N
1506931195.4,286046997.0,N
